星链-32127 (STARLINK-32127)

导读

STARLINK-32127是美国SpaceX星链卫星互联网项目的卫星,于2024年6月27日发射入轨,属于星链星座组网的组成部分。星链系统通过近地轨道卫星群提供全球覆盖的高速互联网服务,该卫星进一步扩充了星链星座规模,助力提升系统的覆盖能力与服务稳定性,延续了SpaceX密集部署星链星座的节奏。

Basic Information
目录编号:
60146
目录名称:
STARLINK-32127
国际标识:
2024-120M
轨道中心:
EARTH
卫星名称:
星链-32127
卫星全名:
星链-32127 (STARLINK-32127)
卫星状态:
在轨 (已飞行721 天)
发射日期:
2024-06-27 UTC
国别 :
美国 (US)
星等 :
--
Orbit Information
数据来源 国际轨道数据 AOE轨道数据
星历时间 2026-06-17T17:45:57+0800
16小时前
查看轨道信息
2026-06-15T04:00:00+0800
3天前
查看轨道信息
半长轴 6840.859km 6840.828km
偏心率 0.0001126 0.000123
轨道倾角 53.160° 53.157°
近地点辐角 83.668° 75.997°
升交点赤经 216.017° 228.052°
平近点角 276.445° 100.198°
近地点 461.951km 461.849km
远地点 463.493km 463.533km
周期 93.848分钟 93.848分钟
每日圈数 15.34394 15.344042
Detailed Information
固有亮度:
5
最大亮度:
2.5
卫星平台:
Starlink V1.0
覆盖范围:
全球
运营商:
太空探索技术公司
运营商所在国:
美国
制造商(研发单位):
太空探索技术公司
制造商所在国:
美国
使用方式:
暂无
Satellite Introduction
Starlink 计划是 SpaceX 推出的全球卫星互联网项目,通过发射低轨道卫星,为全球尤其是偏远地区提供高速、低延迟的互联网服务。自 2019 年起,Starlink 已部署数千颗卫星,旨在缩小全球数字鸿沟,推动互联网普及。该项目还为军事、航空等行业提供通信支持,带来广泛经济效益。
2D Orbit Map
3D Orbit Map
Orbit Altitude Analysis Chart
Orbit Inclination Analysis Chart
Orbit Comprehensive Analysis Chart
View Comprehensive Chart